QPF
0.00 0.00 0.00 0.00 0.00 0.00 0.00 0.00 0.00 0.00 0.00 0.01 0.02 0.03 0.05 0.08 0.11 0.15 0.15 0.13 0.08 0.06 0.04 0.04 0.03 0.02 0.01 0.01 0.00 0.00 0.00 0.00 0.00 0.00 0.00 0.00 0.00 0.00 0.00 0.00 0.00 0.00 0.00 0.00
0.00 0.00 0.00 0.00 0.00 0.00 0.00 0.00 0.00 0.00 0.00 0.00 0.01 0.03 0.05 0.08 0.11 0.11 0.11 0.10 0.08 0.06 0.03 0.02 0.01 0.00 0.00 0.00 0.00 0.00 0.00 0.00 0.00 0.00 0.00 0.00 0.00 0.00 0.00 0.00 0.00 0.00 0.00 0.00
0.00 0.00 0.00 0.00 0.00 0.00 0.00 0.00 0.00 0.00 0.00 0.00 0.01 0.04 0.05 0.07 0.07 0.06 0.04 0.04 0.04 0.03 0.01 0.01 0.00 0.00 0.00 0.00 0.00 0.00 0.00 0.00 0.00 0.00 0.00 0.00 0.00 0.00 0.00 0.00 0.00 0.00 0.00 0.00
0.00 0.00 0.00 0.00 0.00 0.00 0.00 0.00 0.00 0.00 0.00 0.01 0.01 0.03 0.03 0.04 0.06 0.05 0.03 0.02 0.01 0.01 0.00 0.00 0.00 0.00 0.00 0.00 0.00 0.00 0.00 0.00 0.00 0.00 0.00 0.00 0.00 0.00 0.00 0.00 0.00 0.00 0.00 0.00
0.00 0.00 0.00 0.00 0.00 0.00 0.00 0.00 0.00 0.00 0.00 0.00 0.00 0.01 0.01 0.01 0.03 0.03 0.02 0.01 0.00 0.00 0.00 0.00 0.00 0.00 0.00 0.00 0.00 0.01 0.01 0.01 0.01 0.00 0.00 0.00 0.00 0.00 0.00 0.00 0.00 0.00 0.00 0.00
0.00 0.00 0.00 0.00 0.00 0.00 0.00 0.00 0.00 0.00 0.00 0.00 0.00 0.01 0.01 0.01 0.01 0.01 0.01 0.00 0.00 0.00 0.00 0.00 0.00 0.00 0.00 0.00 0.00 0.01 0.01 0.01 0.00 0.00 0.00 0.00 0.00 0.00 0.00 0.00 0.00 0.00 0.00 0.00
0.00 0.00 0.00 0.00 0.00 0.00 0.00 0.00 0.00 0.00 0.00 0.00 0.00 0.00 0.00 0.00 0.00 0.00 0.00 0.00 0.00 0.00 0.00 0.00 0.00 0.00 0.00 0.00 0.00 0.00 0.00 0.01 0.00 0.00 0.00 0.00 0.00 0.00 0.00 0.00 0.00 0.00 0.00 0.00
0.00 0.00 0.00 0.00 0.00 0.00 0.00 0.00 0.00 0.00 0.00 0.00 0.00 0.00 0.00 0.00 0.00 0.00 0.00 0.00 0.00 0.00 0.00 0.00 0.00 0.00 0.00 0.00 0.00 0.00 0.00 0.00 0.00 0.00 0.00 0.00 0.00 0.00 0.00 0.00 0.00 0.00 0.00 0.00
0.00 0.00 0.00 0.00 0.00 0.00 0.00 0.00 0.00 0.00 0.00 0.00 0.00 0.00 0.00 0.00 0.00 0.00 0.00 0.00 0.00 0.00 0.00 0.00 0.00 0.00 0.00 0.00 0.00 0.00 0.00 0.00 0.00 0.00 0.00 0.00 0.00 0.00 0.00 0.00 0.00 0.00 0.00 0.00
0.00 0.00 0.00 0.00 0.00 0.00 0.00 0.00 0.00 0.00 0.00 0.00 0.00 0.00 0.00 0.00 0.00 0.00 0.00 0.00 0.00 0.00 0.00 0.00 0.00 0.00 0.00 0.00 0.00 0.00 0.00 0.00 0.00 0.00 0.00 0.00 0.00 0.00 0.00 0.00 0.00 0.00 0.00 0.00
0.00 0.00 0.00 0.00 0.00 0.00 0.00 0.00 0.00 0.00 0.00 0.00 0.00 0.00 0.00 0.00 0.00 0.00 0.00 0.00 0.00 0.00 0.00 0.00 0.00 0.00 0.00 0.00 0.00 0.00 0.00 0.00 0.00 0.00 0.00 0.00 0.00 0.00 0.00 0.00 0.00 0.00 0.00 0.00
0.00 0.00 0.00 0.00 0.00 0.00 0.00 0.00 0.00 0.00 0.00 0.00 0.00 0.00 0.00 0.00 0.00 0.00 0.00 0.00 0.00 0.00 0.00 0.00 0.00 0.00 0.00 0.00 0.00 0.00 0.00 0.00 0.00 0.00 0.00 0.00 0.00 0.00 0.00 0.00 0.00 0.00 0.00 0.00
0.00 0.00 0.00 0.00 0.00 0.00 0.00 0.00 0.00 0.00 0.00 0.00 0.00 0.00 0.00 0.00 0.00 0.00 0.00 0.00 0.00 0.00 0.00 0.00 0.00 0.00 0.00 0.00 0.00 0.00 0.00 0.00 0.00 0.00 0.00 0.00 0.00 0.00 0.00 0.00 0.00 0.00 0.00 0.00
0.00 0.00 0.00 0.00 0.00 0.00 0.00 0.00 0.00 0.00 0.00 0.00 0.00 0.00 0.00 0.00 0.00 0.00 0.00 0.00 0.00 0.00 0.00 0.00 0.00 0.00 0.00 0.00 0.00 0.00 0.00 0.00 0.00 0.00 0.00 0.00 0.00 0.00 0.00 0.00 0.00 0.00 0.00 0.00
0.00 0.00 0.00 0.00 0.00 0.00 0.00 0.00 0.00 0.00 0.00 0.00 0.00 0.00 0.00 0.00 0.00 0.00 0.00 0.00 0.00 0.00 0.00 0.00 0.00 0.00 0.00 0.00 0.00 0.00 0.00 0.00 0.00 0.00 0.00 0.00 0.00 0.00 0.00 0.00 0.00 0.00 0.00 0.00
0.00 0.00 0.00 0.00 0.00 0.00 0.00 0.00 0.00 0.00 0.00 0.00 0.00 0.00 0.00 0.00 0.00 0.00 0.00 0.00 0.00 0.00 0.00 0.00 0.00 0.00 0.00 0.00 0.00 0.00 0.00 0.00 0.00 0.00 0.00 0.00 0.00 0.00 0.00 0.00 0.00 0.00 0.00 0.00
0.00 0.00 0.00 0.00 0.00 0.00 0.00 0.00 0.00 0.00 0.00 0.00 0.00 0.00 0.00 0.00 0.00 0.00 0.00 0.00 0.00 0.00 0.00 0.00 0.00 0.00 0.00 0.00 0.00 0.00 0.00 0.00 0.00 0.00 0.00 0.00 0.00 0.00 0.00 0.00 0.00 0.00 0.00 0.00
0.00 0.00 0.00 0.00 0.00 0.00 0.00 0.00 0.00 0.00 0.00 0.00 0.00 0.00 0.00 0.00 0.00 0.00 0.00 0.00 0.00 0.00 0.00 0.00 0.00 0.00 0.00 0.00 0.00 0.00 0.00 0.00 0.00 0.00 0.00 0.00 0.00 0.00 0.00 0.00 0.00 0.00 0.00 0.00
0.00 0.00 0.00 0.00 0.00 0.00 0.00 0.00 0.00 0.00 0.00 0.00 0.00 0.00 0.00 0.00 0.00 0.00 0.00 0.00 0.00 0.00 0.00 0.00 0.00 0.00 0.00 0.00 0.00 0.00 0.00 0.00 0.00 0.00 0.00 0.00 0.00 0.00 0.00 0.00 0.00 0.00 0.00 0.00
0.00 0.01 0.00 0.00 0.00 0.00 0.00 0.00 0.00 0.00 0.00 0.00 0.00 0.00 0.00 0.00 0.00 0.00 0.00 0.00 0.00 0.00 0.00 0.00 0.00 0.00 0.00 0.00 0.00 0.00 0.00 0.00 0.00 0.00 0.00 0.00 0.00 0.00 0.00 0.00 0.00 0.00 0.00 0.00
0.00 0.00 0.00 0.00 0.00 0.00 0.00 0.00 0.00 0.00 0.00 0.00 0.00 0.00 0.00 0.00 0.00 0.00 0.00 0.00 0.00 0.00 0.00 0.00 0.00 0.00 0.00 0.00 0.00 0.00 0.00 0.00 0.00 0.00 0.00 0.00 0.00 0.00 0.00 0.00 0.00 0.00 0.00 0.00
0.00 0.00 0.00 0.00 0.00 0.00 0.00 0.00 0.00 0.00 0.00 0.00 0.00 0.00 0.00 0.00 0.00 0.00 0.00 0.00 0.00 0.00 0.00 0.00 0.00 0.00 0.00 0.00 0.00 0.00 0.00 0.00 0.00 0.00 0.00 0.00 0.00 0.00 0.00 0.00 0.00 0.00 0.00 0.00
0.00 0.00 0.00 0.00 0.00 0.00 0.00 0.00 0.00 0.00 0.00 0.00 0.00 0.00 0.00 0.00 0.00 0.00 0.00 0.00 0.00 0.00 0.00 0.00 0.00 0.00 0.00 0.00 0.00 0.00 0.00 0.00 0.00 0.00 0.00 0.00 0.00 0.00 0.00 0.00 0.00 0.00 0.00 0.00
0.00 0.00 0.00 0.00 0.00 0.00 0.00 0.00 0.00 0.00 0.00 0.00 0.00 0.00 0.00 0.00 0.00 0.00 0.00 0.00 0.00 0.00 0.00 0.00 0.00 0.00 0.00 0.00 0.00 0.00 0.00 0.00 0.00 0.00 0.00 0.00 0.00 0.00 0.00 0.00 0.00 0.00 0.00 0.00
0.00 0.00 0.00 0.00 0.00 0.00 0.00 0.00 0.00 0.00 0.00 0.00 0.00 0.00 0.00 0.00 0.00 0.00 0.00 0.00 0.00 0.00 0.00 0.00 0.00 0.00 0.00 0.00 0.00 0.00 0.00 0.00 0.00 0.00 0.00 0.00 0.00 0.00 0.00 0.00 0.00 0.00 0.00 0.00
0.00 0.00 0.00 0.00 0.00 0.00 0.00 0.00 0.00 0.00 0.00 0.00 0.00 0.00 0.00 0.00 0.00 0.00 0.00 0.00 0.00 0.00 0.00 0.00 0.00 0.00 0.00 0.00 0.00 0.00 0.00 0.00 0.00 0.00 0.00 0.00 0.00 0.00 0.00 0.00 0.00 0.00 0.00 0.00
MSLP
1012.90 1013.12 1013.22 1013.21 1013.16 1013.10 1013.08 1013.14 1013.29 1013.53 1013.83 1014.18 1014.54 1014.89 1015.22 1015.51 1015.76 1015.96 1016.11 1016.21 1016.26 1016.25 1016.19 1016.10 1016.01 1015.93 1015.88 1015.89 1015.96 1016.09 1016.27 1016.48 1016.69 1016.88 1017.05 1017.18 1017.27 1017.33 1017.35 1017.34 1017.30 1017.21 1017.08 1016.91
1012.83 1012.99 1013.04 1013.01 1012.96 1012.93 1012.97 1013.10 1013.34 1013.66 1014.02 1014.41 1014.78 1015.13 1015.42 1015.66 1015.86 1016.02 1016.13 1016.21 1016.24 1016.22 1016.16 1016.07 1015.96 1015.87 1015.80 1015.79 1015.86 1015.99 1016.18 1016.42 1016.66 1016.90 1017.10 1017.25 1017.34 1017.38 1017.37 1017.33 1017.25 1017.15 1017.02 1016.86
1012.64 1012.75 1012.76 1012.73 1012.70 1012.73 1012.85 1013.08 1013.40 1013.79 1014.21 1014.61 1014.96 1015.24 1015.45 1015.60 1015.71 1015.79 1015.84 1015.88 1015.90 1015.89 1015.85 1015.78 1015.69 1015.61 1015.56 1015.56 1015.63 1015.77 1015.99 1016.26 1016.54 1016.81 1017.04 1017.21 1017.31 1017.34 1017.31 1017.24 1017.15 1017.03 1016.91 1016.78
1012.39 1012.44 1012.42 1012.40 1012.41 1012.52 1012.74 1013.08 1013.50 1013.95 1014.40 1014.78 1015.07 1015.25 1015.34 1015.36 1015.33 1015.30 1015.28 1015.28 1015.28 1015.29 1015.29 1015.27 1015.23 1015.20 1015.18 1015.21 1015.31 1015.48 1015.73 1016.02 1016.34 1016.65 1016.91 1017.10 1017.21 1017.25 1017.21 1017.13 1017.03 1016.92 1016.81 1016.70
1012.13 1012.12 1012.09 1012.08 1012.15 1012.35 1012.68 1013.13 1013.63 1014.15 1014.60 1014.93 1015.13 1015.18 1015.11 1014.96 1014.79 1014.63 1014.51 1014.46 1014.46 1014.50 1014.55 1014.60 1014.64 1014.68 1014.73 1014.81 1014.95 1015.15 1015.43 1015.75 1016.10 1016.44 1016.73 1016.95 1017.08 1017.13 1017.10 1017.03 1016.93 1016.82 1016.72 1016.63
1011.92 1011.86 1011.80 1011.82 1011.96 1012.25 1012.68 1013.22 1013.80 1014.35 1014.79 1015.06 1015.15 1015.05 1014.81 1014.48 1014.14 1013.84 1013.63 1013.53 1013.53 1013.61 1013.73 1013.87 1014.01 1014.13 1014.26 1014.40 1014.59 1014.83 1015.12 1015.47 1015.84 1016.20 1016.51 1016.76 1016.92 1016.99 1016.98 1016.92 1016.83 1016.73 1016.64 1016.55
1011.79 1011.68 1011.62 1011.66 1011.86 1012.22 1012.74 1013.35 1013.98 1014.54 1014.95 1015.14 1015.11 1014.86 1014.45 1013.95 1013.46 1013.03 1012.74 1012.60 1012.61 1012.73 1012.93 1013.17 1013.41 1013.63 1013.84 1014.05 1014.27 1014.54 1014.85 1015.20 1015.58 1015.95 1016.28 1016.54 1016.72 1016.81 1016.82 1016.78 1016.70 1016.61 1016.52 1016.44
1011.75 1011.61 1011.54 1011.60 1011.84 1012.25 1012.82 1013.47 1014.12 1014.67 1015.03 1015.14 1015.00 1014.62 1014.07 1013.43 1012.81 1012.29 1011.93 1011.77 1011.79 1011.97 1012.25 1012.58 1012.91 1013.22 1013.51 1013.77 1014.02 1014.30 1014.61 1014.95 1015.32 1015.68 1016.00 1016.27 1016.46 1016.57 1016.60 1016.56 1016.49 1016.40 1016.31 1016.23
1011.77 1011.61 1011.55 1011.63 1011.88 1012.31 1012.89 1013.54 1014.17 1014.68 1014.98 1015.02 1014.79 1014.31 1013.66 1012.93 1012.23 1011.66 1011.27 1011.10 1011.15 1011.38 1011.73 1012.14 1012.55 1012.93 1013.27 1013.57 1013.84 1014.12 1014.41 1014.72 1015.05 1015.38 1015.69 1015.94 1016.13 1016.23 1016.26 1016.23 1016.16 1016.07 1015.98 1015.90
1011.81 1011.67 1011.62 1011.70 1011.95 1012.36 1012.91 1013.52 1014.09 1014.54 1014.78 1014.75 1014.46 1013.93 1013.23 1012.47 1011.75 1011.17 1010.78 1010.64 1010.72 1010.99 1011.39 1011.86 1012.33 1012.76 1013.13 1013.44 1013.71 1013.96 1014.22 1014.49 1014.77 1015.06 1015.32 1015.54 1015.70 1015.79 1015.81 1015.78 1015.70 1015.61 1015.52 1015.44
1011.84 1011.73 1011.70 1011.78 1012.01 1012.38 1012.86 1013.38 1013.87 1014.23 1014.40 1014.33 1014.00 1013.46 1012.78 1012.04 1011.35 1010.81 1010.47 1010.36 1010.48 1010.78 1011.21 1011.71 1012.20 1012.65 1013.03 1013.34 1013.59 1013.81 1014.03 1014.24 1014.47 1014.70 1014.91 1015.08 1015.20 1015.26 1015.26 1015.21 1015.13 1015.03 1014.95 1014.88
1011.84 1011.79 1011.79 1011.86 1012.05 1012.34 1012.72 1013.14 1013.51 1013.78 1013.87 1013.76 1013.43 1012.92 1012.29 1011.62 1011.01 1010.54 1010.27 1010.21 1010.36 1010.68 1011.13 1011.63 1012.12 1012.56 1012.92 1013.22 1013.45 1013.64 1013.81 1013.97 1014.14 1014.31 1014.46 1014.58 1014.66 1014.68 1014.66 1014.59 1014.50 1014.40 1014.32 1014.27
1011.82 1011.84 1011.87 1011.94 1012.08 1012.28 1012.54 1012.81 1013.06 1013.22 1013.23 1013.09 1012.77 1012.31 1011.76 1011.20 1010.69 1010.32 1010.11 1010.11 1010.29 1010.62 1011.05 1011.52 1011.99 1012.41 1012.75 1013.03 1013.23 1013.40 1013.54 1013.67 1013.79 1013.91 1014.02 1014.09 1014.13 1014.11 1014.06 1013.97 1013.88 1013.79 1013.72 1013.68
1011.81 1011.90 1011.97 1012.03 1012.10 1012.21 1012.33 1012.46 1012.56 1012.60 1012.53 1012.35 1012.05 1011.65 1011.19 1010.74 1010.34 1010.06 1009.94 1009.97 1010.17 1010.49 1010.89 1011.33 1011.76 1012.15 1012.47 1012.73 1012.93 1013.08 1013.21 1013.33 1013.43 1013.53 1013.60 1013.64 1013.64 1013.60 1013.53 1013.43 1013.33 1013.24 1013.18 1013.16
1011.84 1011.99 1012.09 1012.13 1012.15 1012.14 1012.14 1012.12 1012.07 1011.98 1011.83 1011.60 1011.30 1010.95 1010.57 1010.21 1009.92 1009.73 1009.66 1009.73 1009.93 1010.23 1010.59 1010.99 1011.38 1011.74 1012.04 1012.30 1012.51 1012.68 1012.83 1012.96 1013.07 1013.16 1013.22 1013.25 1013.23 1013.18 1013.09 1012.98 1012.88 1012.79 1012.74 1012.73
1011.91 1012.11 1012.22 1012.24 1012.20 1012.10 1011.96 1011.80 1011.61 1011.40 1011.15 1010.86 1010.55 1010.23 1009.91 1009.62 1009.40 1009.27 1009.25 1009.33 1009.52 1009.79 1010.11 1010.47 1010.82 1011.16 1011.47 1011.74 1011.98 1012.20 1012.39 1012.56 1012.70 1012.82 1012.89 1012.93 1012.91 1012.85 1012.75 1012.64 1012.53 1012.44 1012.39 1012.37
1012.00 1012.22 1012.33 1012.33 1012.23 1012.05 1011.80 1011.51 1011.19 1010.86 1010.52 1010.17 1009.83 1009.51 1009.21 1008.97 1008.79 1008.69 1008.68 1008.77 1008.93 1009.17 1009.45 1009.77 1010.11 1010.44 1010.76 1011.07 1011.36 1011.64 1011.90 1012.14 1012.34 1012.50 1012.60 1012.66 1012.65 1012.59 1012.49 1012.38 1012.26 1012.16 1012.08 1012.05
1012.06 1012.28 1012.37 1012.34 1012.20 1011.95 1011.62 1011.23 1010.81 1010.38 1009.96 1009.54 1009.16 1008.81 1008.51 1008.27 1008.11 1008.01 1008.00 1008.07 1008.21 1008.41 1008.66 1008.96 1009.28 1009.62 1009.97 1010.33 1010.69 1011.04 1011.38 1011.69 1011.96 1012.18 1012.33 1012.41 1012.42 1012.37 1012.27 1012.14 1012.00 1011.88 1011.77 1011.70
1012.02 1012.21 1012.28 1012.23 1012.05 1011.76 1011.39 1010.94 1010.46 1009.96 1009.47 1009.00 1008.56 1008.18 1007.85 1007.60 1007.41 1007.30 1007.27 1007.31 1007.41 1007.59 1007.81 1008.09 1008.41 1008.77 1009.16 1009.57 1010.00 1010.43 1010.84 1011.23 1011.57 1011.84 1012.04 1012.15 1012.18 1012.13 1012.02 1011.88 1011.71 1011.55 1011.41 1011.29
1011.82 1011.97 1012.02 1011.95 1011.77 1011.48 1011.10 1010.64 1010.13 1009.59 1009.06 1008.55 1008.08 1007.66 1007.29 1007.00 1006.79 1006.65 1006.58 1006.59 1006.67 1006.81 1007.02 1007.28 1007.60 1007.98 1008.40 1008.85 1009.33 1009.83 1010.31 1010.76 1011.16 1011.48 1011.71 1011.85 1011.89 1011.84 1011.72 1011.55 1011.35 1011.15 1010.97 1010.80
1011.45 1011.57 1011.61 1011.55 1011.39 1011.13 1010.78 1010.34 1009.85 1009.32 1008.78 1008.25 1007.75 1007.29 1006.90 1006.57 1006.32 1006.14 1006.04 1006.01 1006.06 1006.18 1006.36 1006.61 1006.93 1007.31 1007.74 1008.22 1008.74 1009.27 1009.79 1010.28 1010.72 1011.07 1011.33 1011.48 1011.52 1011.46 1011.33 1011.13 1010.90 1010.66 1010.44 1010.23
1010.97 1011.07 1011.11 1011.09 1010.98 1010.78 1010.49 1010.12 1009.67 1009.18 1008.66 1008.13 1007.62 1007.15 1006.72 1006.36 1006.08 1005.87 1005.73 1005.67 1005.69 1005.77 1005.93 1006.16 1006.45 1006.82 1007.24 1007.72 1008.23 1008.77 1009.30 1009.80 1010.25 1010.61 1010.88 1011.03 1011.07 1011.00 1010.84 1010.62 1010.37 1010.09 1009.83 1009.60
1010.47 1010.58 1010.65 1010.68 1010.64 1010.52 1010.32 1010.02 1009.65 1009.22 1008.74 1008.23 1007.73 1007.24 1006.80 1006.42 1006.11 1005.87 1005.70 1005.61 1005.60 1005.65 1005.77 1005.96 1006.21 1006.53 1006.91 1007.35 1007.83 1008.33 1008.83 1009.32 1009.75 1010.10 1010.35 1010.50 1010.53 1010.45 1010.28 1010.04 1009.76 1009.47 1009.19 1008.94
1010.09 1010.22 1010.35 1010.44 1010.48 1010.45 1010.34 1010.13 1009.84 1009.46 1009.03 1008.55 1008.07 1007.59 1007.14 1006.75 1006.42 1006.15 1005.96 1005.84 1005.79 1005.80 1005.87 1006.00 1006.19 1006.44 1006.75 1007.11 1007.51 1007.95 1008.39 1008.82 1009.21 1009.53 1009.77 1009.90 1009.92 1009.83 1009.65 1009.40 1009.12 1008.82 1008.53 1008.28
1009.95 1010.13 1010.32 1010.48 1010.59 1010.64 1010.60 1010.47 1010.24 1009.92 1009.52 1009.08 1008.60 1008.13 1007.69 1007.29 1006.95 1006.68 1006.47 1006.32 1006.23 1006.19 1006.20 1006.26 1006.36 1006.51 1006.71 1006.97 1007.27 1007.60 1007.96 1008.31 1008.64 1008.91 1009.12 1009.23 1009.24 1009.15 1008.97 1008.73 1008.45 1008.15 1007.87 1007.63
1010.13 1010.37 1010.61 1010.83 1011.00 1011.10 1011.11 1011.02 1010.82 1010.53 1010.16 1009.73 1009.27 1008.81 1008.37 1007.98 1007.64 1007.36 1007.13 1006.96 1006.83 1006.74 1006.68 1006.65 1006.64 1006.68 1006.76 1006.88 1007.05 1007.26 1007.51 1007.77 1008.02 1008.24 1008.41 1008.49 1008.50 1008.41 1008.25 1008.02 1007.75 1007.48 1007.22 1006.99
Thickness
5779 5772 5771 5775 5776 5771 5767 5762 5757 5756 5759 5756 5749 5744 5741 5739 5735 5730 5727 5727 5729 5732 5736 5737 5736 5735 5734 5730 5727 5724 5720 5716 5712 5710 5708 5705 5703 5701 5698 5695 5690 5689 5688 5688
5775 5774 5783 5783 5778 5772 5767 5761 5758 5753 5754 5751 5745 5739 5738 5733 5729 5728 5725 5723 5727 5730 5733 5734 5734 5734 5732 5729 5725 5721 5716 5714 5709 5706 5703 5699 5697 5696 5693 5689 5685 5683 5682 5681
5773 5783 5787 5780 5775 5770 5769 5765 5761 5752 5748 5749 5742 5730 5729 5729 5728 5727 5728 5730 5733 5734 5734 5734 5734 5734 5732 5729 5725 5722 5717 5712 5708 5704 5701 5697 5693 5692 5692 5687 5684 5680 5677 5677
5783 5789 5783 5779 5776 5773 5766 5770 5764 5755 5748 5744 5741 5726 5728 5731 5727 5727 5729 5732 5736 5738 5738 5737 5736 5735 5733 5731 5728 5723 5717 5712 5707 5703 5700 5697 5691 5688 5686 5683 5682 5678 5675 5673
5782 5785 5780 5775 5774 5775 5766 5771 5765 5758 5753 5746 5743 5736 5733 5736 5730 5731 5736 5739 5742 5743 5742 5740 5740 5739 5737 5735 5731 5726 5719 5713 5708 5703 5699 5694 5691 5689 5687 5682 5679 5675 5676 5672
5786 5791 5787 5781 5779 5777 5770 5765 5761 5760 5761 5739 5737 5736 5731 5741 5741 5742 5745 5746 5746 5746 5745 5744 5743 5741 5738 5736 5732 5727 5720 5714 5709 5703 5699 5693 5689 5685 5681 5678 5676 5675 5675 5672
5776 5782 5788 5787 5774 5770 5768 5759 5750 5746 5745 5738 5740 5739 5740 5752 5755 5754 5752 5751 5751 5750 5748 5745 5743 5740 5738 5735 5732 5728 5721 5714 5709 5703 5698 5693 5688 5684 5679 5676 5676 5671 5672 5670
5765 5765 5780 5783 5777 5770 5767 5762 5742 5728 5734 5742 5741 5737 5751 5761 5761 5760 5759 5758 5755 5753 5752 5749 5746 5743 5739 5736 5731 5726 5720 5713 5708 5703 5697 5692 5687 5684 5682 5677 5672 5670 5667 5666
5769 5765 5781 5782 5783 5777 5764 5764 5767 5751 5745 5739 5742 5746 5757 5762 5758 5758 5758 5756 5754 5754 5753 5751 5748 5744 5740 5735 5730 5725 5717 5711 5706 5702 5695 5689 5685 5680 5677 5672 5668 5668 5663 5660
5776 5760 5776 5778 5779 5771 5772 5766 5757 5748 5729 5729 5736 5741 5746 5752 5755 5758 5757 5756 5757 5756 5754 5751 5748 5744 5739 5734 5727 5722 5716 5709 5704 5699 5693 5689 5683 5678 5673 5669 5665 5661 5658 5654
5777 5760 5767 5771 5764 5765 5758 5756 5754 5754 5745 5730 5729 5744 5767 5763 5764 5762 5762 5762 5760 5757 5755 5751 5746 5742 5736 5731 5725 5718 5712 5706 5700 5695 5690 5684 5680 5676 5671 5666 5662 5658 5654 5649
5773 5766 5757 5764 5772 5773 5767 5761 5753 5739 5737 5739 5736 5749 5776 5773 5772 5769 5767 5766 5763 5759 5756 5750 5744 5737 5732 5728 5723 5716 5710 5704 5698 5693 5687 5681 5676 5672 5667 5664 5659 5654 5649 5645
5768 5756 5745 5752 5754 5761 5761 5759 5757 5751 5743 5740 5735 5750 5771 5771 5768 5768 5766 5764 5760 5755 5751 5746 5740 5734 5730 5726 5721 5715 5709 5703 5698 5691 5684 5678 5673 5669 5664 5660 5655 5650 5645 5639
5768 5757 5747 5740 5747 5757 5754 5757 5755 5747 5742 5742 5745 5752 5765 5766 5764 5766 5764 5762 5758 5751 5746 5742 5736 5732 5728 5723 5717 5711 5706 5701 5694 5688 5682 5676 5670 5666 5661 5656 5651 5645 5640 5634
5763 5754 5757 5760 5764 5759 5755 5755 5755 5748 5746 5742 5749 5753 5762 5767 5766 5766 5764 5760 5753 5747 5743 5739 5735 5731 5725 5720 5713 5708 5702 5697 5690 5684 5678 5673 5669 5663 5658 5652 5646 5640 5634 5628
5758 5750 5753 5750 5760 5757 5750 5754 5755 5752 5751 5749 5750 5752 5771 5771 5767 5763 5760 5755 5749 5745 5742 5739 5735 5730 5724 5718 5712 5706 5700 5693 5687 5679 5675 5670 5664 5659 5653 5648 5642 5635 5628 5621
5757 5746 5740 5741 5757 5749 5740 5755 5755 5755 5758 5753 5747 5757 5767 5762 5760 5759 5758 5755 5750 5747 5744 5739 5735 5730 5724 5718 5711 5703 5697 5690 5683 5676 5671 5666 5661 5654 5649 5643 5636 5629 5622 5615
5749 5743 5741 5743 5740 5720 5752 5772 5766 5757 5759 5763 5760 5762 5763 5760 5760 5761 5760 5757 5752 5749 5745 5741 5737 5732 5725 5718 5711 5702 5695 5687 5680 5674 5668 5663 5656 5650 5643 5636 5629 5621 5615 5608
5753 5742 5740 5738 5732 5735 5757 5767 5763 5753 5752 5767 5761 5761 5763 5762 5757 5760 5764 5760 5755 5752 5747 5743 5739 5734 5725 5717 5709 5699 5690 5684 5677 5671 5664 5658 5651 5644 5636 5629 5622 5615 5607 5601
5744 5741 5738 5732 5720 5717 5746 5763 5768 5756 5742 5766 5762 5758 5760 5754 5744 5754 5766 5762 5756 5752 5748 5743 5739 5731 5721 5713 5705 5694 5687 5680 5673 5667 5660 5652 5644 5636 5629 5621 5614 5608 5600 5594
5735 5731 5731 5730 5723 5738 5756 5760 5757 5732 5735 5756 5758 5756 5755 5751 5750 5758 5762 5759 5754 5750 5745 5740 5733 5725 5717 5709 5700 5689 5683 5676 5671 5663 5654 5646 5638 5630 5622 5614 5607 5600 5594 5589
5736 5733 5728 5727 5719 5727 5748 5749 5738 5735 5747 5749 5749 5750 5749 5750 5753 5754 5753 5750 5747 5744 5740 5735 5726 5719 5712 5705 5695 5685 5678 5673 5665 5656 5648 5640 5632 5624 5618 5608 5601 5594 5589 5583
5738 5738 5736 5733 5733 5740 5742 5736 5736 5737 5735 5738 5741 5744 5745 5744 5746 5746 5745 5742 5739 5736 5732 5728 5720 5712 5705 5698 5690 5681 5674 5666 5657 5649 5641 5633 5626 5618 5610 5602 5596 5590 5585 5580
5738 5732 5729 5725 5734 5733 5729 5725 5724 5724 5724 5729 5733 5735 5737 5736 5737 5736 5734 5732 5729 5726 5723 5719 5712 5705 5698 5691 5683 5676 5668 5659 5649 5641 5634 5627 5619 5612 5605 5598 5592 5588 5583 5578
5723 5723 5721 5717 5722 5722 5715 5708 5709 5711 5714 5717 5719 5722 5722 5722 5722 5721 5719 5717 5715 5713 5711 5708 5701 5694 5689 5683 5675 5667 5660 5651 5642 5634 5627 5621 5615 5609 5600 5594 5588 5583 5578 5573
5711 5709 5708 5706 5701 5700 5693 5696 5699 5698 5699 5701 5702 5703 5706 5706 5705 5705 5703 5702 5700 5698 5696 5693 5689 5684 5679 5674 5667 5660 5652 5644 5636 5629 5622 5617 5611 5604 5597 5591 5587 5582 5573 5567